星链-2112 (STARLINK-2112 )

导读

STARLINK-2112是美国太空探索技术公司(SpaceX)“星链”项目中的一颗卫星,于2021年1月20日由猎鹰9号火箭发射升空。它属于星链第一代低轨通信卫星,部署在近地轨道,为全球提供高速互联网接入服务。作为星链星座组网的重要组成部分,它与数千颗同系列卫星共同构建起覆盖全球的低轨卫星通信网络,推动了全球卫星互联网的发展进程。

基本信息
目录编号:
47391
目录名称:
STARLINK-2112
国际标识:
2021-005AU
轨道中心:
EARTH
卫星名称:
星链-2112
卫星全名:
星链-2112 (STARLINK-2112 )
卫星状态:
在轨 (已飞行2060 天)
发射日期:
2021-01-20 UTC
国别 :
美国 (US)
星等 :
--
该卫星已列入 空间交会检测服务 Space Conjunction Data Service (SCDS) ,当前飞行风险评估等级: 无高风险
轨道信息
数据来源 国际轨道数据 AOE轨道数据
星历时间 2026-09-11T09:36:46+0800
13小时前
查看轨道信息
2026-09-10T14:00:00+0800
1天前
查看轨道信息
半长轴 6898.166km 6898.298km
偏心率 0.0002097 0.0002292
轨道倾角 53.066° 53.064°
近地点辐角 52.973° 47.488°
升交点赤经 273.060° 276.781°
平近点角 307.145° 172.223°
近地点 518.582km 518.579km
远地点 521.476km 521.743km
周期 95.030分钟 95.033分钟
每日圈数 15.153131 15.152695
详细信息
固有亮度:
5
最大亮度:
2.5
卫星平台:
Starlink V1.0
覆盖范围:
全球
运营商:
太空探索技术公司
运营商所在国:
美国
制造商(研发单位):
太空探索技术公司
制造商所在国:
美国
使用方式:
暂无
卫星简介
星链(Starlink)计划是由太空探索技术公司(SpaceX)提出的一个巨型低轨卫星互联网星座项目,计划在2019年至2024年间在太空搭建由约1.2万颗卫星组成的“星链”网络,其中1584颗将部署在地球上空550千米处的近地轨道,并从2020年开始工作。该卫星仍在工作。
2D轨道图
3D轨道图
轨道高度分析图
轨道倾角分析图
轨道综合分析图
查看轨道综合分析图
与全量物体交会距离演化趋势
与全量物体交会风险概率演化趋势